[[{"header":{"parameterUnit":"m.s-1","parameterCategory":1,"la1":30.2992,"la2":30.254,"lo1":-89.0895,"lo2":-89.0443,"dy":0.0025,"dx":0.0025,"nx":19,"ny":19,"refTime":"2026-03-17T09:00:00:Z","depth":0,"parameterNumber":2,"parameterNumberName":"U-component_of_WINDS"},"data":[0,0,0,-1.4627,-1.4628,-1.4672,-1.4672,-1.4747,-1.4748,0,0,0,0,0,0,0,0,0,0,0,-1.4624,-1.4625,-1.4627,-1.4628,-1.4672,-1.4672,-1.4747,-1.4748,0,0,0,0,0,0,0,0,0,0,0,-1.4624,-1.4625,-1.4626,-1.4628,-1.4672,-1.4672,-1.4747,-1.4707,0,0,0,0,0,0,0,0,0,0,-1.4662,-1.4669,-1.4625,-1.4626,-1.4629,-1.4672,-1.4672,-1.4705,-1.471,-1.4736,0,-1.476,0,-1.4755,-1.4754,-1.4755,0,0,0,-1.4621,-1.4665,-1.4668,-1.4626,-1.4629,-1.4672,-1.465,-1.4708,-1.4713,-1.4742,-1.4761,-1.4763,-1.4756,-1.4755,-1.4755,-1.4925,-1.4927,0,0,-1.4618,-1.4638,-1.4664,-1.4672,-1.4664,-1.4649,-1.4651,-1.471,-1.4733,-1.4761,-1.4764,-1.4758,-1.4756,-1.4756,-1.4924,-1.4926,0,0,0,-1.4616,-1.4637,-1.4637,-1.4669,-1.4675,-1.465,-1.4653,-1.473,-1.4729,-1.4765,-1.4759,-1.4756,-1.4757,-1.4923,-1.4925,-1.5001,0,0,0,-1.4615,-1.4636,-1.4636,-1.4649,-1.4674,-1.4703,-1.4672,-1.4724,-1.473,-1.4758,-1.4756,-1.4758,-1.4922,-1.4924,-1.4996,-1.5034,0,0,0,-1.4618,-1.4636,-1.4646,-1.465,-1.4669,-1.4701,-1.4703,-1.4725,-1.4727,-1.4755,-1.4758,-1.4921,-1.4924,-1.4991,-1.5026,-1.5085,0,0,0,-1.4628,-1.4712,-1.4647,-1.4739,-1.4669,-1.4747,-1.4702,-1.476,-1.4793,-1.4757,-1.4922,-1.4925,-1.499,-1.5022,-1.5081,-1.5139,-1.5164,0,0,-1.4746,-1.4727,-1.478,-1.4723,-1.4818,-1.4739,-1.4846,-1.4857,-1.4843,-1.4899,-1.4903,-1.4997,-1.5026,-1.5084,-1.5299,-1.532,0,0,0,-1.4824,-1.4863,-1.4883,-1.4915,-1.4925,-1.4938,-1.4931,-1.4936,-1.4982,-1.4875,-1.5033,-1.505,-1.5083,-1.511,-1.5127,-1.5156,-1.4938,-1.4937,-1.4937,-1.502,-1.4996,-1.5082,-1.5063,-1.5095,-1.5087,-1.5111,-1.5116,-1.5082,-1.5121,-1.5137,-1.5271,-1.5303,-1.5316,-1.5346,-1.5165,-1.5165,-1.5166,-1.5166,-1.5192,-1.5243,-1.5196,-1.5263,-1.5238,-1.5294,-1.5291,-1.5265,-1.5315,-1.5256,-1.5284,-1.5222,-1.5339,-1.5364,-1.5171,-1.517,-1.517,-1.5169,-1.5169,-1.5318,-1.5339,-1.5342,-1.5386,-1.5423,-1.5401,-1.5452,-1.5427,-1.5403,-1.5431,-1.5448,-1.5446,-1.5443,-1.5441,-1.5441,-1.5441,-1.5442,-1.5442,-1.5442,-1.5449,-1.545,-1.5495,-1.5514,-1.5531,-1.5551,-1.5545,-1.5562,-1.5575,-1.5553,-1.5553,-1.5518,-1.5354,-1.5315,-1.545,-1.5448,-1.5447,-1.5447,-1.5446,-1.5634,-1.5588,-1.5658,-1.5675,-1.5696,-1.5735,-1.5702,-1.574,-1.575,-1.5776,-1.5734,-1.5617,-1.5597,-1.5583,-1.555,-1.5738,-1.5738,-1.5738,-1.5738,-1.5742,-1.5729,-1.5795,-1.5825,-1.5851,-1.5829,-1.591,-1.5907,-1.5897,-1.5902,-1.5871,-1.5825,-1.5812,-1.5799,-1.5781,-1.575,-1.5984,-1.5984,-1.5984,-1.5855,-1.5844,-1.5917,-1.5905,-1.5919,-1.5933,-1.6009,-1.6047,-1.6026,-1.5994,-1.5906,-1.5896,-1.5821,-1.5798,-1.5765,-1.5736,-1.5679,0,0]},{"header":{"parameterUnit":"m.s-1","parameterCategory":1,"la1":30.2992,"la2":30.254,"lo1":-89.0895,"lo2":-89.0443,"dy":0.0025,"dx":0.0025,"nx":19,"ny":19,"refTime":"2026-03-17T09:00:00:Z","depth":0,"parameterNumber":3,"parameterNumberName":"V-component_of_WINDS"},"data":[0,0,0,1.9717,1.9716,1.9669,1.9668,1.9612,1.9612,0,0,0,0,0,0,0,0,0,0,0,1.9736,1.9736,1.9717,1.9716,1.9669,1.9668,1.9612,1.9612,0,0,0,0,0,0,0,0,0,0,0,1.9736,1.9736,1.9735,1.9716,1.9669,1.9668,1.9612,1.9646,0,0,0,0,0,0,0,0,0,0,1.9691,1.9713,1.9736,1.9735,1.9716,1.9669,1.9668,1.9648,1.9644,1.9636,0,1.9632,0,1.9621,1.9608,1.9608,0,0,0,1.9712,1.9716,1.97,1.9735,1.9715,1.9669,1.9689,1.9646,1.9641,1.9631,1.9631,1.9629,1.962,1.9608,1.9608,1.958,1.958,0,0,1.9715,1.9729,1.9703,1.9697,1.9707,1.9691,1.9688,1.9643,1.9643,1.9631,1.9627,1.9619,1.9608,1.9607,1.958,1.958,0,0,0,1.9725,1.9731,1.9715,1.97,1.9691,1.9689,1.9686,1.9645,1.9639,1.9627,1.9619,1.9607,1.9607,1.958,1.958,1.9597,0,0,0,1.9726,1.9737,1.9717,1.9725,1.9692,1.9668,1.9689,1.9642,1.9636,1.9619,1.9607,1.9606,1.958,1.958,1.9596,1.9602,0,0,0,1.9737,1.9738,1.9733,1.9726,1.9706,1.9668,1.9659,1.964,1.9631,1.9608,1.9606,1.958,1.958,1.9596,1.9601,1.9599,0,0,0,1.9752,1.9748,1.9734,1.9726,1.9707,1.968,1.9659,1.9638,1.962,1.9607,1.958,1.958,1.9596,1.9601,1.9599,1.96,1.9602,0,0,1.9755,1.9749,1.9743,1.9729,1.9709,1.9686,1.9667,1.9636,1.962,1.9594,1.9593,1.9597,1.9601,1.9599,1.9609,1.9611,0,0,0,1.9748,1.9744,1.9736,1.9721,1.9698,1.9679,1.965,1.9638,1.9616,1.961,1.9595,1.9597,1.9595,1.9595,1.9597,1.9594,1.9581,1.9581,1.9581,1.9771,1.9752,1.9741,1.9717,1.9702,1.9673,1.9659,1.9638,1.9622,1.9619,1.961,1.9619,1.9619,1.962,1.9618,1.961,1.961,1.961,1.961,1.9772,1.9763,1.9744,1.9726,1.9706,1.969,1.9661,1.9651,1.9632,1.9623,1.9621,1.9612,1.9623,1.9619,1.9611,1.9611,1.9611,1.9611,1.9611,1.9784,1.9777,1.9765,1.9741,1.9724,1.9699,1.9683,1.9664,1.9647,1.9644,1.9633,1.9633,1.963,1.9641,1.9641,1.9641,1.9641,1.9641,1.9641,1.9802,1.9787,1.9777,1.9754,1.9742,1.9723,1.9694,1.9681,1.9662,1.9649,1.9649,1.9633,1.9628,1.9627,1.9641,1.9641,1.9641,1.9641,1.9641,1.9809,1.9805,1.9788,1.9776,1.9748,1.9732,1.971,1.9685,1.9672,1.9664,1.9649,1.9648,1.964,1.9639,1.9637,1.9654,1.9654,1.9654,1.9654,1.9819,1.9814,1.9793,1.9775,1.9756,1.9734,1.9714,1.9692,1.9667,1.9658,1.9653,1.965,1.9649,1.9641,1.964,1.9638,1.9654,1.9654,1.9654,1.9822,1.9814,1.9802,1.978,1.9756,1.9736,1.9717,1.9696,1.9667,1.9654,1.9649,1.9649,1.9644,1.9644,1.963,1.9628,1.9625,0,0]}]]